Fort Meade, MD

12:57 PM EST on December 11, 2017 (GMT -0500)
Tipton

Weather History for KFME - October, 2012

Change the Weather History Date:

Monday, October 29, 2012

  Actual Average (KBWI) Record (KBWI)
Temperature  
Mean Temperature 48 °F -  
Max Temperature 51 °F 63 °F 82 °F (1946)
Min Temperature 44 °F 40 °F 26 °F (2001)
Degree Days  
Heating Degree Days 18    
Moisture  
Dew Point 47 °F    
Average Humidity 90    
Maximum Humidity 94    
Minimum Humidity 87    
Precipitation  
Precipitation 0.00 in - - ()
Sea Level Pressure  
Sea Level Pressure 29.21 in    
Wind  
Wind Speed 12 mph (NNW)    
Max Wind Speed 30 mph    
Max Gust Speed 45 mph    
Visibility 5 miles    
Events      
Averages and records for this station are not official NWS values.
T = Trace of Precipitation, MM = Missing Value Source: NWS Daily Summary

Daily Weather History Graph

Daily Weather History Graph

Search for Another Location

Airport or City:

Trip Planner

Search our weather history database for the weather conditions in past years. The results will help you decide how hot, cold, wet, or windy it might be!

Date:

Astronomy

Oct. 29, 2012 Rise Set
Actual Time 7:31 AM EDT 6:09 PM EDT
Civil Twilight 7:04 AM EDT 6:36 PM EDT
Nautical Twilight 6:32 AM EDT 7:08 PM EDT
Astronomical Twilight 6:01 AM EDT 7:39 PM EDT
Moon 6:00 PM EDT (10/29) 7:19 AM EDT (10/29)
Length of Visible Light 11h 32m
Length of Day
10h 37m
Full, 100% of the Moon is Illuminated
Oct 29
Full
Oct 29
Full
Nov 6
Last Quarter
Nov 13
New
Nov 20
First Quarter

Hourly Weather History & Observations

Time (EDT) Temp. Windchill Dew Point Humidity Pressure Visibility Wind Dir Wind Speed Gust Speed Precip Events Conditions
12:12 AM 51.8 °F - 50.0 °F 94% 29.58 in 10.0 mi North 6.9 mph - N/A   Overcast
12:33 AM 51.8 °F - 50.0 °F 94% 29.58 in 10.0 mi NNE 10.4 mph - N/A   Scattered Clouds
12:54 AM 51.8 °F - 50.0 °F 94% 29.57 in 10.0 mi NNE 9.2 mph - N/A   Mostly Cloudy
1:36 AM 51.8 °F - 50.0 °F 94% 29.56 in 10.0 mi North 6.9 mph - N/A   Clear
2:00 AM 51.8 °F - 50.0 °F 94% 29.55 in 10.0 mi North 9.2 mph - N/A   Mostly Cloudy
2:21 AM 51.8 °F - 50.0 °F 94% 29.54 in 10.0 mi North 9.2 mph - N/A   Mostly Cloudy
2:42 AM 51.8 °F - 50.0 °F 94% 29.53 in 10.0 mi North 4.6 mph 16.1 mph N/A   Scattered Clouds
3:03 AM 51.8 °F - 50.0 °F 94% 29.53 in 10.0 mi NNW 4.6 mph - N/A   Mostly Cloudy
3:24 AM 51.8 °F - 48.2 °F 88% 29.53 in 10.0 mi North 8.1 mph - N/A   Scattered Clouds
3:45 AM 51.8 °F - 48.2 °F 88% 29.52 in 10.0 mi North 8.1 mph - N/A   Clear
4:06 AM 51.8 °F - 48.2 °F 88% 29.52 in 10.0 mi North 6.9 mph - N/A   Scattered Clouds
4:48 AM 51.8 °F - 48.2 °F 88% 29.52 in 7.0 mi North 6.9 mph - N/A   Clear
5:12 AM 50.0 °F - 48.2 °F 94% 29.50 in 7.0 mi North 6.9 mph - N/A   Clear
5:54 AM 50.0 °F - 46.4 °F 87% 29.48 in 7.0 mi North 9.2 mph 18.4 mph N/A   Clear
6:36 AM 50.0 °F - 46.4 °F 87% 29.47 in 5.0 mi NNW 6.9 mph - N/A   Clear
6:57 AM 50.0 °F - 46.4 °F 87% 29.45 in 5.0 mi NNW 9.2 mph - N/A   Clear
7:18 AM 50.0 °F - 46.4 °F 87% 29.46 in 5.0 mi NNW 9.2 mph - N/A   Scattered Clouds
7:39 AM 50.0 °F - 46.4 °F 87% 29.46 in 4.0 mi NNW 9.2 mph - N/A   Scattered Clouds
8:21 AM 50.0 °F - 46.4 °F 87% 29.44 in 2.0 mi NNW 6.9 mph 16.1 mph N/A   Overcast
8:42 AM 50.0 °F - 46.4 °F 87% 29.44 in 1.5 mi NNW 11.5 mph 16.1 mph N/A   Overcast
9:06 AM 50.0 °F - 46.4 °F 87% 29.41 in 1.2 mi NNW 9.2 mph 18.4 mph N/A   Overcast
9:27 AM 50.0 °F - 46.4 °F 87% 29.39 in 2.5 mi NNW 10.4 mph 19.6 mph N/A   Overcast
9:48 AM 50.0 °F - 46.4 °F 87% 29.38 in 5.0 mi NW 15.0 mph 23.0 mph N/A   Clear
10:09 AM 50.0 °F - 46.4 °F 87% 29.36 in 4.0 mi NNW 13.8 mph 23.0 mph N/A   Clear
10:30 AM 50.0 °F - 46.4 °F 87% 29.33 in 1.5 mi NW 18.4 mph 23.0 mph N/A   Unknown
10:51 AM 50.0 °F - 46.4 °F 87% 29.29 in 2.0 mi NW 16.1 mph 23.0 mph N/A   Unknown
11:33 AM 50.0 °F - 46.4 °F 87% 29.25 in 2.5 mi NW 13.8 mph 21.9 mph N/A   Unknown
11:54 AM 50.0 °F - 46.4 °F 87% 29.24 in 2.0 mi NW 17.3 mph 25.3 mph N/A   Unknown
12:39 PM 50.0 °F - 46.4 °F 87% 29.17 in 1.8 mi NW 17.3 mph 36.8 mph N/A   Unknown
1:06 PM 50.0 °F - 46.4 °F 87% 29.14 in 1.0 mi NW 15.0 mph 32.2 mph N/A   Mostly Cloudy
1:27 PM 50.0 °F - 46.4 °F 87% 29.09 in 1.8 mi WNW 20.7 mph 35.7 mph N/A   Unknown
1:48 PM 50.0 °F - 46.4 °F 87% 29.06 in 1.8 mi NW 25.3 mph 39.1 mph N/A   Unknown
2:09 PM 50.0 °F - 46.4 °F 87% 29.05 in 1.8 mi WNW 21.9 mph 35.7 mph N/A   Scattered Clouds
2:30 PM 50.0 °F - 46.4 °F 87% 29.02 in 1.8 mi WNW 20.7 mph 28.8 mph N/A   Scattered Clouds
3:36 PM 48.2 °F - 46.4 °F 93% 28.94 in 1.5 mi NW 25.3 mph 36.8 mph N/A   Scattered Clouds
3:57 PM 48.2 °F - 46.4 °F 93% 28.90 in 1.5 mi WNW 24.2 mph 41.4 mph N/A   Unknown
4:18 PM 48.2 °F - 44.6 °F 87% 28.87 in 1.2 mi NW 19.6 mph 34.5 mph N/A   Unknown
4:39 PM 46.4 °F 40.4 °F 44.6 °F 93% 28.85 in 1.2 mi WNW 13.8 mph 42.6 mph N/A   Unknown
5:00 PM 46.4 °F 39.0 °F 44.6 °F 93% 28.82 in 1.0 mi NW 19.6 mph 38.0 mph N/A   Unknown
6:03 PM 46.4 °F 37.9 °F 44.6 °F 93% 28.73 in 1.8 mi WNW 25.3 mph 36.8 mph N/A   Scattered Clouds
6:24 PM 46.4 °F 38.5 °F 44.6 °F 93% 28.72 in 1.5 mi WNW 21.9 mph 43.7 mph N/A   Unknown
6:45 PM 46.4 °F 39.0 °F 44.6 °F 93% 28.69 in 1.8 mi WNW 19.6 mph 44.9 mph N/A   Mostly Cloudy
7:06 PM 46.4 °F 37.2 °F 44.6 °F 93% 28.68 in 2.0 mi WNW 29.9 mph 39.1 mph N/A   Unknown
10:39 PM 44.6 °F 36.4 °F 42.8 °F 93% 28.58 in 2.5 mi West 20.7 mph 40.3 mph N/A   Unknown
11:00 PM 44.6 °F 36.1 °F 42.8 °F 93% 28.57 in 4.0 mi West 21.9 mph 38.0 mph N/A   Scattered Clouds
11:21 PM 44.6 °F 36.1 °F 42.8 °F 93% 28.57 in 5.0 mi West 21.9 mph 41.4 mph N/A   Mostly Cloudy
11:42 PM 44.6 °F 36.4 °F 42.8 °F 93% 28.58 in 5.0 mi West 20.7 mph 33.4 mph N/A   Overcast